Weather in Piracicaba

Brazil     22°43′38″S   47°37′52″W
temp.,
°C
wind,
m/s
gust,
m/s
humid.,
%
clouds,
%
prec.,
mm/h
press.,
hPa
HPBL,
m
27 february, sat
sat2700:00+19se36941 0.9 1014163
03:00+18ene22940 1.0 101349
06:00+18ese11965 0.9 101423
09:00+23nne128126 1.9 1015484
12:00+26nw226959 0.4 1014913
15:00+27se116863 5.3 1011922
18:00+23se358595 4.3 1011176
21:00+21se499194 6.3 1014251
28 february, sun
sun2800:00+20ese489497 2.6 1014259
03:00+20ese129297 2.7 101367
06:00+20ese119183 0.0 101433
09:00+23ne247684 0.0 1015446
12:00+27ne476646 0.5 10141143
15:00+27ne456529 2.2 10111263
18:00+25ne23741 0.2 101172
21:00+21ene228439 1.4 101326
1 march, mon
mon100:00+21e1285100 0.2 101423
03:00+21ene238699 0.2 101273
06:00+19ene239176 0.0 101367
09:00+24nne247770 0.1 1014483
12:00+28nne466146 0.6 10131324
15:00+28nne456125 1.4 10101541
18:00+26ne237330 0.1 101079
21:00+24ne227460 0.1 101331
2 march, tue
tue200:00+23e2381100 0.5 101377
03:00+21ene128789 0.5 101235
06:00+20ene248993 1.1 1014119
09:00+24nne488094 3.6 1015600
12:00+27nne4569100 3.6 1014937
15:00+29n335995 4.7 10121477
18:00+24wsw228197 2.8 101249
21:00+21sse369198 3.6 1015194
3 march, wed
wed300:00+20w0191100 0.0 101623
03:00+20sw1194100 0.6 101423
06:00+19nne129481 0.1 101523
09:00+23nne467857 0.1 1017474
12:00+24nw1477100 0.3 1016533
15:00+27w3464100 0.4 10141057
18:00+23s2283100 0.4 101471
21:00+21sse1289100 1.9 101624